OBJECT P, 66306

Orbit data source: Space-Track

You're viewing an Uncataloged Satellite

Recently launched and/or uncataloged satellites may have evolving metadata. Metadata may include but not limited to: Owner, Maufacturer, Bus, Motor, and Mission.

OBJECT P, 66306 is a satellite in LEO that was launched on Sun, 02 Nov 2025 UTC via an FALCON 9 launch vehicle from the Air Force Eastern Test Range (AFETR). Unknown objects in Earth's orbit typically refer to objects detected orbiting the Earth but have not yet been identified or cataloged. These objects could be anything from previously untracked satellites, spent rocket stages, debris from satellite collisions, or even natural meteoroids temporarily captured by Earth's gravity.

Loading next visibility...
Identifier
66306, 2025-248P
Orbit
LEO
Country
Flag of TBDTBD
Related business
None
Manufacturer
Unknown
Mission
Operational Commercial Com/MetRO
Bus & Motor
Unknown
Mass
Unknown
Launch date (UTC)
2025-11-02 (8 months ago)
Launch vehicle
FALCON 9
Launch site
Air Force Eastern Test Range (AFETR)
Object type
Unknown
Shape & HBR
Box + 2 Pan, 0.5 m
Radar Cross Section
0.063 m², Small (<0.1 m²)

Expand to show TLE details & history
Last TLE update: 16 hours ago

TLE from 16 hours ago
0 OBJECT P
1 66306U 25248P   26171.16151365  .00014116  00000-0  52500-3 0  9995
2 66306  45.4023  97.6455 0012212  83.1760 277.0519 15.27448403 35052
Epoch: 2026-06-20T03:52Z
TLE epoch observation values (Epoch: 2026-06-20T03:52:34.779Z)
Latitude
0.00004°
Longitude
131.12052°
Altitude
482.468 km
Speed
7.626 km/s
True Right ascension
06h 30m 34s
True Declination
0° 00' 00"
Sunlit
Object was in daylight at epoch
Visualization orbit readout
Latitude
Unknown
Longitude
Unknown
Altitude
Unknown
Speed
Unknown
Apparent Right ascension
Unknown
Apparent Declination
Unknown
Sunlit
N/A
Visualization observer readout
Local Sidereal Time
07:17:16
Azimuth
Unknown
Elevation
Unknown
Doppler factor
Unknown
Orbital elements
Apogee altitude
493.366 km
Perigee altitude
476.603 km
Semi-major axis
6,863.122 km
Eccentricity
0.00122
Inclination
45.4023°
RAAN
97.6455°
Arg. of periapsis
83.176°
True anomaly
276.91299°
Mean anomaly
277.0519°
Eccentric anomaly
276.98245°
Mean motion
3.81734 °/min
Orbital period
94.31 mins
BSTAR
0.000525
Loading maneuver chart data...
Computing Atmospheric mass density...
Loading historical data...
Loading historical data...
Loading historical data...
Loading historical data...
Loading historical data...
Loading historical data...
Loading historical data...

Documentation

Showing up to 5 results
|